www.pogodaiklimat.ru

Погода и климат >> Архив погоды >> Индия >> Guna


ПОГОДА в Guna

  • Прогноз погоды в Guna
  • Монитор погоды в Guna
  • Климат города

АРХИВ ПОГОДЫ в Guna

Время (UTC), дата Ветер
(напр.,м/с)
 
Видим.   Явления Облачность Т
(С)
Тd
(С)
f
(%)
Тe
(С)
Тes
(С)
Комфортность P
(гПа)
Po
(гПа)
Тmin
(С)
Tmax
(С)
R
(мм)
R24
(мм)
S
(см)
21 15.10 штиль 0 4000 м ясно +22.0 +13.4 58 +25 +25 комфорт 1011.6 1012.0
00 16.10 штиль 0 4000 м ясно +19.6 +13.3 67 +21 +21 комфорт 1012.3 1012.0
03 16.10 штиль 0 4000 м ясно +23.0 +13.8 56 +26 +31 жарко 1013.8 1014.0 +18.2
06 16.10 З 1 4000 м ясно +33.6 +10.0 24 +33 +50 жарко 1011.3 1011.0
09 16.10 штиль 0 4000 м ясно +35.6 +10.8 22 +35 +48 очень
жарко
1008.2 1008.0
12 16.10 штиль 0 4000 м ясно +32.4 +14.9 35 +34 +35 очень
жарко
1008.3 1008.0 +35.8
15 16.10 штиль 0 4000 м ясно +26.2 +16.1 54 +30 +30 душно 1011.5 1012.0
18 16.10 штиль 0 4000 м ясно +23.8 +15.5 60 +27 +27 жарко 1011.9 1012.0
21 16.10 З 1 4000 м ясно +22.6 +12.9 54 +25 +25 комфорт 1012.0 1012.0
00 17.10 штиль 0 4000 м ясно +21.0 +13.4 62 +23 +23 комфорт 1011.3 1011.0
03 17.10 штиль 0 4000 м ясно +23.6 +14.5 57 +26 +31 жарко 1012.4 1012.0 +19.6
06 17.10 З 1 4000 м ясно +33.0 +14.0 32 +34 +52 опасность
солнечного
удара
1010.5 1011.0
09 17.10 З 1 4000 м 5/0
[Ac trans]
+34.8 +12.6 26 +35 +43 очень
жарко
1007.4 1007.0
12 17.10 З 1 4000 м 5/0
[Ac trans]
+32.0 +14.8 35 +34 +34 душно 1007.2 1007.0 +35.8
15 17.10 штиль 0 4000 м ясно +26.2 +16.5 55 +30 +30 душно 1009.3 1009.0
18 17.10 штиль 0 4000 м ясно +24.0 +16.9 65 +28 +28 душно 1009.9 1010.0
21 17.10 штиль 0 4000 м ясно +22.8 +16.6 68 +27 +27 душно 1009.1 1009.0
00 18.10 штиль 0 4000 м ясно +21.0 +15.3 70 +24 +24 комфорт 1010.8 1011.0
03 18.10 штиль 0 4000 м ясно +24.6 +15.3 56 +28 +32 душно 1011.5 1012.0 +19.6
06 18.10 СЗ 1 4000 м ясно +33.8 +14.3 31 +35 +51 опасность
солнечного
удара
1009.9 1010.0
09 18.10 штиль 0 4000 м ясно +35.0 +19.1 39 +40 +53 опасность
солнечного
удара
1008.7 1009.0
12 18.10 З 1 4000 м ясно +32.4 +15.4 36 +35 +35 душно 1007.0 1007.0 +35.6
15 18.10 штиль 0 4000 м ясно +26.8 +18.0 59 +31 +31 душно 1009.3 1009.0
18 18.10 штиль 0 4000 м ясно +24.2 +18.9 72 +29 +29 душно 1010.3 1010.0
21 18.10 штиль 0 4000 м ясно +23.0 +18.2 74 +29 +29 очень
душно
1009.3 1009.0
00 19.10 штиль 0 4000 м ясно +21.0 +14.4 66 +24 +24 комфорт 1011.1 1011.0
03 19.10 штиль 0 4000 м ясно +24.6 +9.9 39 +28 +33 душно 1012.3 1012.0 +19.0
06 19.10 штиль 0 4000 м ясно +33.2 +7.6 20 +31 +50 жарко 1010.4 1010.0
09 19.10 штиль 0 4000 м ясно +35.6 +10.3 22 +35 +48 очень
жарко
1007.7 1008.0
12 19.10 штиль 0 4000 м ясно +32.4 +14.9 35 +34 +35 очень
жарко
1008.2 1008.0 +35.8
15 19.10 штиль 0 4000 м ясно +26.8 +15.7 51 +30 +30 душно 1011.2 1011.0
18 19.10 штиль 0 4000 м ясно +23.8 +14.0 54 +26 +26 жарко 1012.3 1012.0
21 19.10 штиль 0 4000 м ясно +23.6 +12.0 48 +25 +25 комфорт 1011.2 1011.0
00 20.10 штиль 0 4000 м ясно +21.6 +13.7 61 +24 +24 комфорт 1012.0 1012.0
03 20.10 штиль 0 4000 м ясно +25.0 +15.0 54 +28 +32 жарко 1013.4 1013.0 +20.0
06 20.10 штиль 0 4000 м 3/0
[Ac trans]
+34.0 +12.3 27 +34 +49 очень
жарко
1011.6 1012.0
09 20.10 СЗ 1 4000 м 5/0
[Ac trans]
+35.6 +12.9 26 +36 +44 очень
жарко
1008.6 1009.0
12 20.10 СЗ 1 4000 м 5/0
[Ac trans]
+33.0 +15.4 35 +35 +35 душно 1009.3 1009.0 +36.4
15 20.10 З 1 4000 м 4/0
[Ac trans]
+27.4 +15.3 48 +30 +30 жарко 1011.6 1012.0
18 20.10 штиль 0 4000 м ясно +24.8 +19.2 71 +30 +30 душно 1012.7 1013.0
21 20.10 штиль 0 4000 м ясно +22.6 +16.0 66 +27 +27 душно 1011.6 1012.0
00 21.10 штиль 0 4000 м 3/0
[Ac trans]
+21.2 +15.9 72 +25 +25 комфорт 1012.4 1012.0
03 21.10 штиль 0 4000 м ясно +24.4 +17.3 65 +28 +33 душно 1013.6 1014.0 +20.2
06 21.10 З 1 4000 м ясно +33.0 +13.1 30 +34 +50 очень
жарко
1012.2 1012.0
09 21.10 З 1 4000 м 4/0
[Ac trans]
+35.0 +10.9 23 +34 +43 очень
жарко
1009.2 1009.0
12 21.10 СЗ 1 4000 м ясно +31.8 +10.2 26 +31 +32 жарко 1010.7 1011.0 +35.6
15 21.10 штиль 0 4000 м ясно +25.0 +14.2 51 +27 +27 жарко 1013.1 1013.0
18 21.10 штиль 0 4000 м ясно +22.6 +14.5 60 +26 +26 жарко 1013.1 1013.0
21 21.10 штиль 0 4000 м ясно +21.2 +13.2 60 +24 +24 комфорт 1012.5 1013.0
00 22.10 штиль 0 4000 м ясно +20.4 +13.0 62 +22 +22 комфорт 1013.1 1013.0
03 22.10 В 1 4000 м ясно +22.4 +13.4 57 +25 +29 комфорт 1014.6 1015.0 +18.8
06 22.10 ЮЗ 1 4000 м ясно +31.0 +9.9 27 +31 +47 жарко 1012.5 1013.0
09 22.10 В 1 4000 м ясно +32.6 +7.7 21 +31 +42 жарко 1009.4 1009.0
12 22.10 СЗ 1 4000 м ясно +30.0 +10.9 31 +30 +31 жарко 1009.9 1010.0 +36.6
15 22.10 штиль 0 4000 м ясно +23.8 +12.7 50 +26 +26 жарко 1012.7 1013.0
18 22.10 штиль 0 4000 м ясно +21.4 +10.9 51 +23 +23 комфорт 1013.0 1013.0

 

Местоположение метеостанции Guna (Madhya Pradesh, Индия): широта 24.65 долгота 77.32 высота над уровнем моря 478 м.

В архиве по умолчанию представлена погода в Guna за последнюю неделю. Архивные данные за месяц целиком и за предыдущие месяцы, начиная с января 2011 года, Вы можете получить, выбрав интересующий диапазон дат из раскрывающегося списка и нажав кнопку "Ввод!".


*Определитесь, кто Вы:
робот инопланетянин человек

Внимание! Время в таблицах - всемирное. Для получения местного времени необходимо прибавить поправку, которая в Guna равна 5.5 ч.

Смотрите также архив погоды в соседних городах и на ближайших метеорологических станциях:

Погода в Shivpuri (Madhya Pradesh, Индия) (83 км)
Погода в Rajgarh (Madhya Pradesh, Индия) (94 км)
Погода в Sheopur (Madhya Pradesh, Индия) (130 км)
Погода в Bhopal (Madhya Pradesh, Индия) (152 км)
Погода в Tikamgarh (Madhya Pradesh, Индия) (153 км)
Погода в Raisen (Madhya Pradesh, Индия) (157 км)
Погода в Jhansi (Uttar Pradesh, Индия) (158 км)
Погода в Kota (Rajasthan, Индия) (158 км)
Погода в Shajapur (Madhya Pradesh, Индия) (170 км)
Погода в Sagar (Madhya Pradesh, Индия) (170 км)

Пояснения к столбцам:

Ветер - указаны скорость ветра в м/с - средняя за 10 мин, порывы в срок и между сроками (в фигурных скобках) и направление, откуда дует ветер: С - северный, СВ - северо-восточный, В - восточный, ЮВ - юго-восточный, Ю - южный, ЮЗ - юго-западный, З - западный, СЗ - северо-западный.
Видимость - горизонтальная дальность видимости в метрах или километрах. При видимости от 1 до 10 км при отсутствии осадков обычно наблюдается дымка, при ухудшении видимости до 1 км и менее - туман. В сухую погоду видимость может ухудшаться дымом, пылью или мглою.
Явления - указаны атмосферные явления, наблюдавшиеся в срок или в последний час перед сроком; фигурными скобками обозначены явления, наблюдавшиеся между сроками (за 1-3 часа до срока); квадратными скобками обозначены град или гололедные отложения с указанием их диаметра в мм.
Облачность - указаны через наклонную черту общая и нижняя облачность в баллах и высота нижней границы облаков в метрах; квадратными скобками обозначены формы облаков: Ci - перистые, Cs - перисто-слоистые, Cc - перисто-кучевые, Ac - высококучевые, As - высокослоистые, Sc - слоисто-кучевые, Ns - слоисто-дождевые, Cu - кучевые, Cb - кучево-дождевые. Подробнее классификацию облаков см. в Атласе облаков (PDF).
T - Температура воздуха - температура, измеренная на высоте 2 м над землей.
Td - Температура точки росы - температура, при понижении до которой содержащийся в воздухе водяной пар достигнет насыщения.
f - Относительная влажность воздуха - влажноcть воздуха, измеренная на высоте 2 м над землей.
Te - Эффективная температура - температура, которую ощущает одетый по сезону человек в тени. Характеристика душности погоды. При расчете учитывается влияние влажности воздуха и скорости ветра на теплоощущения человека.
Tes - Эффективная температура на солнце - температура, которую ощущает человек, с поправкой на солнечный нагрев. Характеристика знойности погоды. Зависит от высоты солнца над горизонтом, облачности и скорости ветра. Ночью, в пасмурную погоду, а также при ветре 12 м/с и более поправка равна нулю.
P - Атмосферное давление - приведенное к уровню моря атмосферное давление.
Po - Атмосферное давление - измеренное на уровне метеостанции атмосферное давление.
Tmin - Минимальная температура - минимум температуры воздуха на высоте 2 м над землей.
Tmax - Максимальная температура - максимум температуры воздуха на высоте 2 м над землей.
R - Количество осадков - Количество выпавших осадков за период времени, мм. При наведении курсора мыши на число - период времени, за который выпало указанное количество осадков.
R24 - Количество осадков - Количество выпавших осадков за 24 часа, мм.
S - Снежный покров - Высота снежного покрова, см. При наведении курсора мыши на число - состояние снежного покрова и степень покрытия местности в баллах.